{"data":{"norad_id":51651,"intl_designator":"2022-012AF","name":"ONEWEB-0464","alt_names":[],"object_type":"PAYLOAD","status":"ACTIVE","operator":null,"country":"UK","launch_date":"2022-02-10","launch_site_code":"FRGUI","launch_vehicle":null,"mission":null,"orbit_class":"UNKNOWN","rcs_meters":null,"size_class":null,"mass_kg":null,"dimensions":null,"purposes":["comms"],"wikipedia_slug":null,"has_3d_model":false,"image_url":null,"decayed_at":null,"tle_current":{"epoch":"2026-05-25T03:00:57.214080Z","epoch_age_seconds":57572,"freshness":"FRESH","line1":"1 51651U 22012AF  26145.12566220 -.00000617  00000+0 -18031-2 0  9997","line2":"2 51651  87.8854  40.8723 0001895  71.6102 288.5232 13.10374070206301","mean_motion":13.1037407,"eccentricity":0.0001895,"inclination_deg":87.8854,"raan_deg":40.8723,"arg_perigee_deg":71.6102,"mean_anomaly_deg":288.5232,"bstar":-0.0018031,"rev_number":20630,"period_min":109.89228442226,"perigee_km":1220.2721346009,"apogee_km":1223.1524774879,"semimajor_km":7599.8493060444,"source":"CELESTRAK","updated_at":"2026-05-25T13:38:22.582543Z"}}}